Ketchikan, AK

8:40 AM AKDT on October 16, 2018 (GMT -0800)
Ketchikan International

Weather History for PAKT - September, 2018

Change the Weather History Date:

Thursday, September 13, 2018

  Actual Average Record
Temperature  
Mean Temperature 50 °F -  
Max Temperature 62 °F 60 °F 75 °F (1961)
Min Temperature 39 °F 47 °F 37 °F (1999)
Degree Days  
Heating Degree Days 14    
Moisture  
Dew Point 37 °F    
Average Humidity 61    
Maximum Humidity 82    
Minimum Humidity 29    
Precipitation  
Precipitation 0.00 in - - ()
Sea Level Pressure  
Sea Level Pressure 29.99 in    
Wind  
Wind Speed 2 mph (SSW)    
Max Wind Speed 10 mph    
Max Gust Speed -    
Visibility 10 miles    
Events      
Averages and records for this station are not official NWS values.
T = Trace of Precipitation, MM = Missing Value Source: NWS Daily Summary

Daily Weather History Graph

Daily Weather History Graph

Search for Another Location

Airport or City:

Astronomy

Sep. 13, 2018 Rise Set
Actual Time 6:15 AM AKDT 7:08 PM AKDT
Civil Twilight 5:38 AM AKDT 7:45 PM AKDT
Nautical Twilight 4:53 AM AKDT 8:30 PM AKDT
Astronomical Twilight 4:04 AM AKDT 9:19 PM AKDT
Moon 11:16 AM AKDT (9/13) 9:10 PM AKDT (9/13)
Length of Visible Light 14h 07m
Length of Day
12h 53m
Waxing Crescent, 20% of the Moon is Illuminated
Sep 13
Waxing Crescent
Sep 16
First Quarter
Sep 24
Full
Oct 2
Last Quarter
Oct 8
New

Hourly Weather History & Observations

Time (AKDT) Temp. Windchill Dew Point Humidity Pressure Visibility Wind Dir Wind Speed Gust Speed Precip Events Conditions
12:53 AM 46.0 °F - 37.9 °F 73% 29.96 in 10.0 mi Calm Calm - N/A   Clear
1:53 AM 43.0 °F - 37.0 °F 80% 29.98 in 10.0 mi Calm Calm - N/A   Partly Cloudy
2:53 AM 41.0 °F - 35.1 °F 79% 30.00 in 10.0 mi Calm Calm - N/A   Clear
3:53 AM 39.9 °F - 34.0 °F 79% 30.00 in 10.0 mi Calm Calm - N/A   Partly Cloudy
4:53 AM 42.1 °F 40.2 °F 36.0 °F 79% 30.00 in 10.0 mi WNW 3.5 mph - N/A   Clear
5:53 AM 39.0 °F - 34.0 °F 82% 30.01 in 10.0 mi Calm Calm - N/A   Clear
6:04 AM 39.0 °F - 34.0 °F 82% 30.01 in 10.0 mi Calm Calm - N/A   Clear
6:53 AM 39.2 °F - 33.8 °F 81% 30.01 in 10.0 mi Calm Calm - N/A   Clear
7:53 AM 46.9 °F - 39.9 °F 77% 30.02 in 10.0 mi SE 3.5 mph - N/A   Clear
8:53 AM 51.1 °F - 39.0 °F 63% 30.02 in 10.0 mi Calm Calm - N/A   Clear
9:53 AM 55.0 °F - 37.0 °F 51% 30.02 in 10.0 mi NNE 3.5 mph - N/A   Clear
10:53 AM 60.8 °F - 35.6 °F 39% 30.01 in 10.0 mi East 4.6 mph - N/A   Clear
11:53 AM 60.8 °F - 28.4 °F 29% 30.01 in 10.0 mi SE 4.6 mph - N/A   Clear
12:53 PM 62.6 °F - 35.6 °F 37% 30.01 in 10.0 mi North 6.9 mph - N/A   Clear
1:22 PM 60.1 °F - 37.0 °F 42% 30.00 in 10.0 mi NNW 10.4 mph - N/A   Clear
1:53 PM 59.0 °F - 37.4 °F 45% 30.00 in 10.0 mi NW 9.2 mph - N/A   Clear
2:53 PM 60.8 °F - 35.6 °F 39% 29.99 in 10.0 mi WNW 5.8 mph - N/A   Clear
3:53 PM 59.0 °F - 35.6 °F 42% 29.98 in 10.0 mi Calm Calm - N/A   Clear
4:53 PM 60.1 °F - 33.1 °F 36% 29.98 in 10.0 mi Calm Calm - N/A   Clear
5:53 PM 55.4 °F - 41.0 °F 58% 29.98 in 10.0 mi SE 4.6 mph - N/A   Partly Cloudy
6:53 PM 55.0 °F - 37.0 °F 51% 29.98 in 10.0 mi South 3.5 mph - N/A   Overcast
7:53 PM 53.1 °F - 41.0 °F 64% 29.97 in 10.0 mi SSE 3.5 mph - N/A   Mostly Cloudy
8:53 PM 50.0 °F - 39.0 °F 66% 29.98 in 10.0 mi SSW 3.5 mph - N/A   Overcast
9:53 PM 48.9 °F - 43.0 °F 80% 29.98 in 10.0 mi Calm Calm - N/A   Overcast
10:53 PM 51.1 °F - 39.9 °F 66% 29.98 in 10.0 mi Calm Calm - N/A   Overcast
11:53 PM 51.1 °F - 39.0 °F 63% 29.98 in 10.0 mi WSW 3.5 mph - N/A   Overcast